• In Netherlands
  • List of Countries
  • For 7 days
  • Water Temperature
  • Satellite Maps
  • Weather Map
  • Weather Widgets
  • user-avatar
    Login

    Hourly Weather Ali Bayramli

    Today, 22 February, Wednesday

    Time Temperature Precipitation Wind Pressure Humidity
    00:00 +3°C° 0 mm 3 mps 757 mmHg 77%
    01:00 +3°C° 0 mm 3 mps 757 mmHg 75%
    02:00 +3°C° 0 mm 3 mps 757 mmHg 73%
    03:00 +3°C° 0 mm 4 mps 756 mmHg 71%
    04:00 +3°C° 0 mm 4 mps 757 mmHg 71%
    05:00 +1°C° 0 mm 4 mps 757 mmHg 71%
    06:00 +1°C° 0 mm 5 mps 757 mmHg 71%
    07:00 +3°C° 0 mm 5 mps 757 mmHg 64%
    08:00 +4°C° 0 mm 6 mps 758 mmHg 56%
    09:00 +7°C° 0 mm 6 mps 758 mmHg 49%
    10:00 +8°C° 0 mm 6 mps 758 mmHg 44%
    11:00 +10°C° 0 mm 6 mps 758 mmHg 40%
    12:00 +13°C° 0 mm 6 mps 758 mmHg 35%
    13:00 +13°C° 0 mm 6 mps 758 mmHg 35%
    14:00 +14°C° 0 mm 6 mps 758 mmHg 35%
    15:00 +14°C° 0 mm 6 mps 758 mmHg 35%
    16:00 +12°C° 0 mm 5 mps 758 mmHg 40%
    17:00 +11°C° 0 mm 4 mps 758 mmHg 45%
    18:00 +8°C° 0 mm 4 mps 758 mmHg 50%
    19:00 +7°C° 0 mm 4 mps 758 mmHg 51%
    20:00 +7°C° 0 mm 4 mps 758 mmHg 53%
    21:00 +6°C° 0 mm 4 mps 758 mmHg 54%
    22:00 +6°C° 0 mm 4 mps 758 mmHg 54%
    23:00 +5°C° 0 mm 4 mps 758 mmHg 55%

    Tomorrow, 23 February, Thursday

    Time Temperature Precipitation Wind Pressure Humidity
    00:00 +5°C° 0 mm 4 mps 758 mmHg 55%
    01:00 +5°C° 0 mm 4 mps 757 mmHg 56%
    02:00 +4°C° 0 mm 4 mps 757 mmHg 57%
    03:00 +4°C° 0 mm 4 mps 757 mmHg 58%
    04:00 +3°C° 0 mm 5 mps 757 mmHg 59%
    05:00 +3°C° 0 mm 5 mps 758 mmHg 61%
    06:00 +2°C° 0 mm 5 mps 758 mmHg 62%
    07:00 +4°C° 0 mm 7 mps 758 mmHg 57%
    08:00 +6°C° 0 mm 8 mps 759 mmHg 52%
    09:00 +7°C° 0 mm 10 mps 759 mmHg 48%
    10:00 +9°C° 0 mm 10 mps 759 mmHg 44%
    11:00 +11°C° 0 mm 10 mps 760 mmHg 41%
    12:00 +12°C° 0 mm 9 mps 760 mmHg 37%
    13:00 +13°C° 0 mm 8 mps 760 mmHg 36%
    14:00 +14°C° 0 mm 7 mps 760 mmHg 35%
    15:00 +14°C° 0 mm 6 mps 761 mmHg 34%
    16:00 +12°C° 0 mm 5 mps 761 mmHg 39%
    17:00 +11°C° 0 mm 4 mps 761 mmHg 44%
    18:00 +9°C° 0 mm 2 mps 762 mmHg 49%
    19:00 +9°C° 0 mm 2 mps 762 mmHg 51%
    20:00 +8°C° 0 mm 2 mps 762 mmHg 54%
    21:00 +8°C° 0 mm 2 mps 763 mmHg 57%
    22:00 +7°C° 0 mm 3 mps 763 mmHg 58%
    23:00 +7°C° 0 mm 3 mps 763 mmHg 59%

    Day after tomorrow, 24 February, Friday

    Time Temperature Precipitation Wind Pressure Humidity
    00:00 +5°C° 0 mm 3 mps 763 mmHg 61%
    01:00 +5°C° 0 mm 4 mps 762 mmHg 60%
    02:00 +4°C° 0 mm 4 mps 762 mmHg 59%
    03:00 +4°C° 0 mm 4 mps 762 mmHg 58%
    04:00 +3°C° 0 mm 5 mps 762 mmHg 57%
    05:00 +3°C° 0 mm 5 mps 762 mmHg 57%
    06:00 +3°C° 0 mm 6 mps 762 mmHg 56%
    07:00 +4°C° 0 mm 6 mps 763 mmHg 51%
    08:00 +6°C° 0 mm 7 mps 763 mmHg 45%
    09:00 +7°C° 0 mm 8 mps 764 mmHg 40%
    10:00 +10°C° 0 mm 7 mps 764 mmHg 37%
    11:00 +12°C° 0 mm 7 mps 764 mmHg 34%
    12:00 +14°C° 0 mm 6 mps 764 mmHg 31%
    13:00 +15°C° 0 mm 5 mps 764 mmHg 31%
    14:00 +15°C° 0 mm 4 mps 764 mmHg 31%
    15:00 +17°C° 0 mm 3 mps 764 mmHg 30%
    16:00 +14°C° 0 mm 3 mps 764 mmHg 35%
    17:00 +12°C° 0 mm 3 mps 765 mmHg 40%
    18:00 +10°C° 0 mm 2 mps 765 mmHg 45%
    19:00 +10°C° 0 mm 2 mps 765 mmHg 48%
    20:00 +9°C° 0 mm 3 mps 765 mmHg 50%
    21:00 +9°C° 0 mm 3 mps 765 mmHg 53%
    22:00 +8°C° 0 mm 3 mps 765 mmHg 57%
    23:00 +8°C° 0 mm 2 mps 765 mmHg 60%

    25 February, Saturday

    Time Temperature Precipitation Wind Pressure Humidity
    00:00 +7°C° 0 mm 2 mps 765 mmHg 63%
    01:00 +7°C° 0 mm 2 mps 765 mmHg 63%
    02:00 +6°C° 0 mm 2 mps 764 mmHg 63%
    03:00 +6°C° 0 mm 2 mps 764 mmHg 63%
    04:00 +6°C° 0 mm 2 mps 764 mmHg 61%
    05:00 +6°C° 0 mm 2 mps 764 mmHg 59%
    06:00 +6°C° 0 mm 2 mps 764 mmHg 57%
    07:00 +8°C° 0 mm 3 mps 764 mmHg 52%
    08:00 +9°C° 0 mm 3 mps 764 mmHg 46%
    09:00 +11°C° 0 mm 3 mps 765 mmHg 41%
    10:00 +12°C° 0 mm 3 mps 764 mmHg 39%
    11:00 +14°C° 0 mm 4 mps 764 mmHg 37%
    12:00 +15°C° 0 mm 4 mps 763 mmHg 34%
    13:00 +15°C° 0 mm 4 mps 763 mmHg 34%
    14:00 +17°C° 0 mm 4 mps 762 mmHg 34%
    15:00 +17°C° 0 mm 4 mps 761 mmHg 33%
    16:00 +15°C° 0 mm 4 mps 761 mmHg 39%
    17:00 +13°C° 0 mm 4 mps 761 mmHg 44%
    18:00 +12°C° 0 mm 4 mps 761 mmHg 49%
    19:00 +11°C° 0 mm 4 mps 761 mmHg 52%
    20:00 +10°C° 0 mm 4 mps 761 mmHg 56%
    21:00 +8°C° 0 mm 4 mps 761 mmHg 59%
    22:00 +8°C° 0 mm 4 mps 760 mmHg 60%
    23:00 +8°C° 0 mm 4 mps 760 mmHg 60%

    26 February, Sunday

    Time Temperature Precipitation Wind Pressure Humidity
    00:00 +8°C° 0 mm 4 mps 759 mmHg 60%
    01:00 +7°C° 0 mm 4 mps 758 mmHg 59%
    02:00 +7°C° 0 mm 5 mps 758 mmHg 58%
    03:00 +7°C° 0 mm 5 mps 757 mmHg 57%
    04:00 +7°C° 0 mm 6 mps 757 mmHg 55%
    05:00 +7°C° 0 mm 6 mps 757 mmHg 54%
    06:00 +6°C° 0 mm 7 mps 757 mmHg 52%
    07:00 +9°C° 0 mm 7 mps 758 mmHg 47%
    08:00 +10°C° 0 mm 7 mps 759 mmHg 42%
    09:00 +12°C° 0 mm 7 mps 760 mmHg 37%
    10:00 +14°C° 0 mm 7 mps 761 mmHg 37%
    11:00 +15°C° 0 mm 7 mps 762 mmHg 36%
    12:00 +16°C° 0 mm 6 mps 763 mmHg 35%
    13:00 +15°C° 0 mm 7 mps 763 mmHg 38%
    14:00 +13°C° 0 mm 9 mps 764 mmHg 42%
    15:00 +12°C° 0 mm 10 mps 765 mmHg 45%
    16:00 +9°C° 0 mm 10 mps 766 mmHg 48%
    17:00 +7°C° 0 mm 10 mps 766 mmHg 51%
    18:00 +4°C° 0 mm 11 mps 767 mmHg 54%
    19:00 +3°C° 0 mm 10 mps 768 mmHg 54%
    20:00 +3°C° 0 mm 9 mps 769 mmHg 54%
    21:00 +4°C° 0 mm 8 mps 770 mmHg 54%
    22:00 +3°C° 0 mm 7 mps 770 mmHg 55%
    23:00 +3°C° 0 mm 6 mps 770 mmHg 56%

    27 February, Monday

    Time Temperature Precipitation Wind Pressure Humidity
    00:00 +3°C° 0 mm 5 mps 770 mmHg 57%
    01:00 +4°C° 0 mm 4 mps 770 mmHg 59%
    02:00 +4°C° 0 mm 3 mps 770 mmHg 61%
    03:00 +3°C° 0 mm 3 mps 769 mmHg 63%
    04:00 +4°C° 0 mm 2 mps 769 mmHg 65%
    05:00 +4°C° 0 mm 2 mps 769 mmHg 66%
    06:00 +4°C° 0 mm 2 mps 769 mmHg 68%
    07:00 +5°C° 0 mm 2 mps 769 mmHg 65%
    08:00 +6°C° 0 mm 2 mps 769 mmHg 63%
    09:00 +6°C° 0 mm 2 mps 768 mmHg 61%
    10:00 +8°C° 0 mm 2 mps 767 mmHg 60%
    11:00 +9°C° 0 mm 3 mps 767 mmHg 59%
    12:00 +10°C° 0 mm 4 mps 766 mmHg 57%
    13:00 +10°C° 0 mm 4 mps 765 mmHg 56%
    14:00 +11°C° 0 mm 4 mps 764 mmHg 55%
    15:00 +11°C° 0 mm 4 mps 764 mmHg 53%
    16:00 +10°C° 0 mm 4 mps 763 mmHg 58%
    17:00 +8°C° 0 mm 4 mps 763 mmHg 63%
    18:00 +8°C° 0 mm 3 mps 763 mmHg 68%
    19:00 +8°C° 0 mm 3 mps 763 mmHg 73%
    20:00 +7°C° 0 mm 3 mps 763 mmHg 77%
    21:00 +7°C° 0 mm 3 mps 763 mmHg 81%
    22:00 +5°C° 0 mm 3 mps 763 mmHg 84%
    23:00 +5°C° 0 mm 3 mps 763 mmHg 86%
    Show more